Other Public Products
Issued by NWS Grand Forks, ND

Home | Current Version | Previous Version | Text Only | Print | Product List | Glossary On
Versions: 1 2 3 4 5 6 7 8 9 10 11 12 13 14 15 16 17 18 19 20 21 22 23 24 25 26 27 28 29 30 31 32 33 34 35 36 37 38 39 40 41 42 43 44 45 46 47 48 49 50
000
FPUS83 KFGF 010210
OPUFGF
PRAIRIE TO PINES WEATHER ROUNDUP
NATIONAL WEATHER SERVICE EASTERN NORTH DAKOTA/GRAND FORKS ND
900 PM CDT WED AUG 31 2016

 **SATELLITE DATA USED TO AUGMENT SKY COVER AT AUTOMATED STATIONS**
 *****  WEATHER ACROSS EASTERN NORTH DAKOTA  *****

CITY           SKY/WX    TMP DP  RH WIND       PRES   REMARKS
GRAND FORKS    CLOUDY    67  55  65 E6        30.20S
GRAND FORKS AF CLOUDY    66  55  67 E6        30.21S
GRAND CITY NWS   N/A     66 N/A N/A E2          N/A
BUXTON           N/A     70  64  80 E2          N/A
DEVILS LAKE    CLOUDY    67  56  67 E15       30.21R
FARGO          CLOUDY    66  57  72 E7        30.20R
WAHPETON ARPT  PTCLDY    68  54  60 E5        30.20R
$$

 *****  WEATHER ACROSS CENTRAL AND WESTERN NORTH DAKOTA  *****

CITY           SKY/WX    TMP DP  RH WIND       PRES   REMARKS
JAMESTOWN      PTCLDY    64  57  78 E6        30.20S
BISMARCK       CLEAR     68  63  84 E10       30.16S
MINOT          CLEAR     71  56  58 SE10      30.09S
MINOT AFB      CLEAR     68  59  74 E15       30.09R
GARRISON         N/A     69  62  78 SE16G24   30.12R
WILLISTON      CLEAR     86  48  26 SE9       29.98R
DICKINSON      CLEAR     75  49  39 SE14      30.08R
HETTINGER      CLEAR     76  54  46 SE10      30.12R
$$

 *****  OTHER OBSERVATIONS NORTHEAST NORTH DAKOTA  *****

CITY           SKY/WX    TMP DP  RH WIND       PRES   REMARKS
WALHALLA       NOT AVBL
LANGDON        FAIR      63  54  72 E10       30.24R
CAVALIER       FAIR      63  55  77 NE6       30.23S
GRAFTON        FAIR      63  59  88 NE6       30.23S HAZE
CANDO          NOT AVBL
FORT TOTTEN      N/A     67  54  62 E7        29.95S
ROLLA          FAIR      61  57  88 E7        30.24S
RUGBY          FAIR      64  57  77 E15       30.17R
 ***** THE ABOVE OBSERVATIONS ARE NON NWS ARE NOT QUALITY
        CONTROLLED AND MAY MIS-REPORT RAIN FOR SNOW...
$$

 *****  OTHER OBSERVATIONS SOUTHEAST NORTH DAKOTA *****

CITY           SKY/WX    TMP DP  RH WIND       PRES   REMARKS
COOPERSTOWN    NOT AVBL
VALLEY CITY    FAIR      66  59  77 E6        30.23S
OAKES            N/A    N/A N/A N/A MISG        N/A
GWINNER        FAIR      64  57  77 NE6       30.20S
BUFFALO          N/A     65  56  71 E3          N/A
WYNDMERE       NOT AVBL
 ***** THE ABOVE OBSERVATIONS ARE NON NWS ARE NOT QUALITY
       CONTROLLED AND MAY MIS-REPORT RAIN FOR SNOW...
$$

  *****  WEATHER ACROSS NORTHERN MINNESOTA  *****

CITY           SKY/WX    TMP DP  RH WIND       PRES   REMARKS
FLAG ISLAND    CLEAR     63  54  72 NE3       30.25F
WARROAD        CLEAR     61  55  82 NE7       30.26S
ROSEAU         CLEAR     61  54  77 CALM      30.26R
HALLOCK        PTCLDY    63  55  77 NE6       30.22S
THF RVR FALLS  CLOUDY    62  55  77 NE7       30.24R
HALSTAD          N/A     65  59  82 E5          N/A
FOSSTON        CLOUDY    57  54  88 CALM      30.24R
BAUDETTE       CLEAR     59  54  83 N8        30.25R
WASKISH        CLEAR     61  55  82 N6        30.25R
CROOKSTON      PTCLDY    66  55  68 E6        30.22S
$$
  *****  WEATHER ACROSS CENTRAL AND WEST MINNESOTA  *****

CITY           SKY/WX    TMP DP  RH WIND       PRES   REMARKS
BEMIDJI        CLEAR     58  53  83 N5        30.24S
PARK RAPIDS    CLEAR     65  54  67 NE6       30.23R
WADENA         NOT AVBL
DETROIT LAKES  CLOUDY    66  55  68 CALM      30.24R
MOORHEAD       CLOUDY    64  55  72 E5        30.21S
FERGUS FALLS   PTCLDY    66  57  72 NE5       30.22R
ELBOW LAKE     FAIR      69  57  64 CALM      30.21R
MORRIS MN      CLEAR     68  57  68 E5        30.19S
STAPLES        CLEAR     63  54  72 CALM      30.23R
WHEATON        CLEAR     70  59  68 NE5       30.21R
$$
  *****  WEATHER ELSEWHERE ACROSS MINNESOTA  *****

CITY           SKY/WX    TMP DP  RH WIND       PRES   REMARKS
DULUTH         PTCLDY    57  55  93 CALM      30.22R
INTRNTL FALLS  CLEAR     61  50  67 N6        30.25R
ELY            CLOUDY    57  54  88 CALM      30.24R
CLOQUET        MOCLDY    63  55  77 CALM      30.22R
BRAINERD       CLEAR     63  57  81 CALM      30.22R
HIBBING        CLEAR     54  53  97 CALM      30.24R
ALEXANDRIA     CLEAR     67  58  72 CALM      30.23R
SAINT CLOUD    CLEAR     60  55  83 CALM      30.20R
MINNEAPOLIS    PTCLDY    70  49  47 N5        30.18R
$$

  *****  WEATHER ACROSS SOUTH DAKOTA  *****

CITY           SKY/WX    TMP DP  RH WIND       PRES   REMARKS
SIOUX FALLS    PTCLDY    70  62  76 CALM      30.19R
BROOKINGS      CLEAR     71  59  65 E7        30.20R
WATERTOWN      CLEAR     72  58  61 E6        30.20R
HURON          CLEAR     70  60  70 E5        30.16R
SISSETON         N/A     67  59  75 E3        30.19R
ABERDEEN       CLEAR     69  62  78 NE6       30.17R
MITCHELL       CLEAR     73  59  61 S8        30.17R
PIERRE         CLEAR     75  62  64 SE9       30.13R
MOBRIDGE       CLEAR     74  59  59 E12       30.12R
RAPID CITY     CLEAR     69  55  60 SE8       30.15R
$$

  *****  SOME WEATHER IN NEARBY STATES *****

CITY           SKY/WX    TMP DP  RH WIND       PRES   REMARKS
GLASGOW MT     CLEAR     87  44  22 SE14      29.84R
GREAT FALLS MT CLOUDY    81  36  19 N8        29.97R
CHEYENNE WY    CLEAR     66  45  46 SE8       30.29R
SCOTTSBLUFF NE CLEAR     71  59  65 SE13      30.19S
OMAHA NE       PTCLDY    67  61  81 NW3       30.16R
DES MOINES IA  PTCLDY    72  57  59 NE6       30.14R
DAVENPORT IA   CLEAR     61  58  90 N3        30.12R
CHICAGO IL     PTCLDY    67  55  65 N8        30.09R
EAU CLAIRE WI  PTCLDY    63  56  78 N6        30.17R
LA CROSSE WI   CLEAR     64  59  83 N3        30.15R
$$

  *****  SOME NATIONAL WEATHER *****

CITY           SKY/WX    TMP DP  RH WIND       PRES   REMARKS
LA GUARDIA NY  CLOUDY    81  67  62 S12       29.88S
RALEIGH NC     PTCLDY    80  70  71 S7        29.94R
ATLANTA GA     PTCLDY    85  66  53 E8        29.93R
NEW ORLEANS LA PTCLDY    89  73  59 E5        29.83R HX  97
OKLAHOMA CITY  LGT RAIN  72  71  97 NW6       30.07R
ALBUQUERQUE NM PTCLDY    74  55  51 E15       30.21R
SALT LAKE CITY MOCLDY    90  35  14 CALM      29.95S
LOS ANGELES CA PTCLDY    70  61  73 SW8       29.83S
BOISE ID       CLEAR     86  33  15 NW7       29.82F
SEATTLE WA     CLOUDY    66  57  72 S7        29.98S
$$

*** WEATHER ACROSS MANITOBA...SASKATCHEWAN AND ONTARIO ***
                ***ONTARIO***

CITY           SKY/WX    TMP DP  RH WIND       PRES   REMARKS
GERALDTON      DRIZZLE   54  52  94 N9        30.23R
THUNDER BAY    PTCLDY    57  50  77 N5        30.22R
SIOUX LOOKOUT  CLEAR     48  46  93 VRB2      30.30R
TORONTO        PTCLDY    68  54  60 N16       29.95S
BIG TROUT LK   CLOUDY    50  48  93 N5        30.34R
PICKLE LAKE    CLOUDY    54  50  87 NE8       30.31R
DRYDEN         CLEAR     55  48  76 NE8       30.30R
KENORA         PTCLDY    57  50  77 NE5       30.29R
$$
                *** MANITOBA***

CITY           SKY/WX    TMP DP  RH WIND       PRES   REMARKS
BRANDON        MOCLDY    61  54  77 E15       30.22R
DAUPHIN        CLEAR     55  52  88 E8        30.23S
ISLAND LAKE    MOCLDY    55  50  82 E3        30.35R
PILOT MOUND      N/A     61  54  77 E7          N/A
THE PAS        PTCLDY    55  48  76 SE6       30.25R
THOMPSON       NOT AVBL
WINNIPEG       PTCLDY    59  54  82 NE9       30.25S
LYNN LAKE      MOCLDY    57  48  72 MISG      30.24S
CHURCHILL      MOCLDY    50  45  81 SE8       30.34S
GILLAM         PTCLDY    55  45  67 E3        30.33S
$$
                ***SASKATCHEWAN***

CITY           SKY/WX    TMP DP  RH WIND       PRES   REMARKS
ESTEVAN        PTCLDY    66  61  82 E18G26    30.05R
KINDERSLEY     CLOUDY    72  59  64 E14G21    29.87F
LLOYDMINSTER   MOCLDY    70  57  64 SE17      29.89S
PRINCE ALBERT  CLOUDY    64  54  68 E13G23    30.05F
REGINA         PTCLDY    72  57  60 E24       29.99S
YORKTON        PTCLDY    63  54  72 E16G23    30.14S
N. BATTLEFORD  NOT AVBL                                C1F1C2F2C3F3C4F4C5F5C6F6C7F7C8F8C9F9CaFaCbFbCcFcCdFdCe!



USA.gov is the U.S. government's official web portal to all federal, state and local government web resources and services.